User: anonymous   Login
Location: Heidgraben
(53.7081°N, 9.6576°E)
Time: 00:04:06
(UTC+00:00)
Language:

Cosmos 923 Rocket - Orbit

View from above orbital plane
View from above orbital plane
View from above satellite
View from above satellite

Ground track
Ground track

The orbit data is extracted from the following two-line orbital elements,

1 10121U 77059B   20271.78481268 -.00000072  00000-0 -15716-4 0  9994
2 10121  74.0441  93.1739 0018455 151.7124 208.5035 14.35956431261893
Epoch (UTC): 27 September 2020 18:50:07
Eccentricity: 0.0018455
inclination: 74.0441°
perigee height: 758 km
apogee height: 785 km
right ascension of ascending node: 93.1739°
argument of perigee: 151.7124°
revolutions per day: 14.35956431
mean anomaly at epoch: 208.5035°
orbit number at epoch: 26189

The dashed part of the orbit path shows where the satellite is in the earth's shadow,  

DLR